[[{"header":{"parameterUnit":"m.s-1","parameterCategory":2,"la1":30.2992,"la2":30.254,"lo1":-89.0895,"lo2":-89.0443,"dy":0.0025,"dx":0.0025,"nx":19,"ny":19,"refTime":"2026-04-11T09:00:00:Z","depth":"0","parameterNumber":2,"parameterNumberName":"U-component_of_CURRENTS"},"data":[0,0,0,-0.1675,-0.1676,-0.1719,-0.1719,-0.1732,-0.1732,0,0,0,0,0,0,0,0,0,0,0,-0.1658,-0.1658,-0.1675,-0.1676,-0.1719,-0.1719,-0.1732,-0.1732,0,0,0,0,0,0,0,0,0,0,0,-0.1658,-0.1658,-0.1658,-0.1676,-0.1719,-0.1719,-0.1732,-0.1712,0,0,0,0,0,0,0,0,0,0,-0.1676,-0.1656,-0.1658,-0.1658,-0.1676,-0.1719,-0.1719,-0.1712,-0.1713,-0.1698,0,-0.1699,0,-0.1712,-0.1731,-0.1731,0,0,0,-0.1684,-0.1655,-0.1672,-0.1658,-0.1677,-0.1719,-0.1702,-0.1713,-0.1715,-0.17,-0.1699,-0.17,-0.1712,-0.1731,-0.1731,-0.1713,-0.1713,0,0,-0.1682,-0.1661,-0.1671,-0.1673,-0.1679,-0.17,-0.1703,-0.1715,-0.1708,-0.1699,-0.1701,-0.1713,-0.1731,-0.1731,-0.1713,-0.1713,0,0,0,-0.1669,-0.1659,-0.1677,-0.1672,-0.1681,-0.1701,-0.1705,-0.1707,-0.1715,-0.1701,-0.1713,-0.1731,-0.1731,-0.1713,-0.1713,-0.165,0,0,0,-0.1668,-0.1652,-0.1676,-0.1664,-0.1681,-0.1699,-0.1697,-0.1714,-0.1716,-0.1713,-0.1731,-0.1731,-0.1714,-0.1713,-0.1652,-0.1604,0,0,0,-0.1658,-0.165,-0.1655,-0.1662,-0.1679,-0.1699,-0.1708,-0.1716,-0.1723,-0.1731,-0.1731,-0.1714,-0.1713,-0.1654,-0.1608,-0.1502,0,0,0,-0.1637,-0.161,-0.1654,-0.1628,-0.1678,-0.1689,-0.1708,-0.1711,-0.1716,-0.1731,-0.1714,-0.1713,-0.1655,-0.161,-0.1506,-0.1326,-0.1294,0,0,-0.1587,-0.1603,-0.1589,-0.1629,-0.1609,-0.1684,-0.1671,-0.1684,-0.1708,-0.1708,-0.1708,-0.1652,-0.1608,-0.1503,-0.1312,-0.128,0,0,0,-0.1563,-0.1526,-0.1537,-0.1534,-0.1586,-0.1608,-0.1651,-0.1667,-0.1671,-0.1709,-0.1664,-0.1639,-0.1574,-0.1474,-0.145,-0.1378,-0.1712,-0.1712,-0.1712,-0.1394,-0.1437,-0.14,-0.1445,-0.1473,-0.1548,-0.1561,-0.159,-0.1638,-0.1632,-0.1598,-0.1488,-0.1385,-0.1363,-0.1294,-0.1621,-0.1621,-0.1621,-0.1621,-0.1246,-0.1214,-0.1278,-0.1256,-0.1341,-0.1352,-0.1448,-0.1489,-0.1478,-0.1556,-0.1496,-0.1427,-0.1332,-0.1268,-0.1617,-0.1618,-0.1618,-0.1618,-0.1619,-0.1095,-0.1098,-0.1102,-0.1108,-0.1123,-0.1231,-0.122,-0.1317,-0.1379,-0.1352,-0.121,-0.1209,-0.1138,-0.1311,-0.131,-0.1309,-0.1309,-0.1308,-0.1308,-0.096,-0.0974,-0.0936,-0.0955,-0.0959,-0.0995,-0.1086,-0.1079,-0.106,-0.1103,-0.1102,-0.1078,-0.1393,-0.1387,-0.1298,-0.1299,-0.1301,-0.1302,-0.1302,-0.0784,-0.0831,-0.0763,-0.0752,-0.0762,-0.0733,-0.082,-0.0745,-0.0735,-0.0665,-0.0709,-0.0956,-0.0941,-0.0961,-0.0945,-0.0746,-0.0746,-0.0746,-0.0746,-0.0685,-0.0698,-0.0626,-0.059,-0.0575,-0.0612,-0.046,-0.04,-0.0376,-0.0346,-0.0444,-0.0487,-0.0513,-0.0479,-0.051,-0.0489,-0.0178,-0.0177,-0.0177,-0.0585,-0.0589,-0.0507,-0.0506,-0.0493,-0.0469,-0.0294,-0.0104,-0.0063,-0.0157,-0.0377,-0.0401,-0.048,-0.0526,-0.0496,-0.0544,-0.0519,0,0]},{"header":{"parameterUnit":"m.s-1","parameterCategory":2,"la1":30.2992,"la2":30.254,"lo1":-89.0895,"lo2":-89.0443,"dy":0.0025,"dx":0.0025,"nx":19,"ny":19,"refTime":"2026-04-11T09:00:00:Z","depth":"0","parameterNumber":3,"parameterNumberName":"V-component_of_CURRENTS"},"data":[0,0,0,0.0011,0.0014,0.0161,0.0162,0.0348,0.0349,0,0,0,0,0,0,0,0,0,0,0,-0.0049,-0.0049,0.0011,0.0014,0.0161,0.0162,0.0348,0.0349,0,0,0,0,0,0,0,0,0,0,0,-0.0049,-0.0049,-0.0049,0.0014,0.0161,0.0162,0.0347,0.0242,0,0,0,0,0,0,0,0,0,0,0.0102,0.0031,-0.0049,-0.0049,0.0015,0.016,0.0162,0.0237,0.0249,0.0273,0,0.0276,0,0.0311,0.0359,0.036,0,0,0,0.0036,0.0021,0.0065,-0.0049,0.0016,0.016,0.0101,0.0244,0.0257,0.0288,0.0279,0.0286,0.0314,0.036,0.0361,0.0367,0.0366,0,0,0.0028,-0.0018,0.0056,0.0072,0.0028,0.0096,0.0105,0.0252,0.0251,0.0279,0.0291,0.0317,0.0362,0.0363,0.0368,0.0367,0,0,0,-0.001,-0.0025,0.0017,0.0064,0.0088,0.01,0.011,0.0245,0.0259,0.0293,0.032,0.0362,0.0364,0.0369,0.0368,0.0245,0,0,0,-0.0014,-0.0048,0.0012,-0.0013,0.0085,0.0167,0.0099,0.0249,0.0267,0.0319,0.0362,0.0366,0.0371,0.0368,0.0251,0.0237,0,0,0,-0.0051,-0.0051,-0.0042,-0.0016,0.004,0.0165,0.0189,0.0254,0.0282,0.036,0.0366,0.0371,0.0369,0.0257,0.0245,0.0331,0,0,0,-0.0091,-0.0104,-0.0044,-0.0052,0.0038,0.0078,0.0189,0.0236,0.0289,0.0363,0.037,0.0368,0.0258,0.0249,0.0334,0.051,0.0514,0,0,-0.0131,-0.0111,-0.0115,-0.0056,-0.0044,0.0061,0.0059,0.018,0.0258,0.033,0.033,0.0249,0.0245,0.0332,0.0359,0.0368,0,0,0,-0.0142,-0.0145,-0.0133,-0.0108,-0.0058,-0.0017,0.0084,0.0113,0.0172,0.0275,0.0231,0.0232,0.0292,0.0401,0.0406,0.047,0.0356,0.0356,0.0356,-0.0241,-0.0203,-0.0212,-0.0166,-0.0147,-0.0076,-0.0049,0.0009,0.0084,0.0065,0.0116,0.0078,0.0185,0.0193,0.0251,0.0078,0.0078,0.0078,0.0077,-0.0293,-0.0288,-0.0262,-0.0252,-0.0217,-0.021,-0.016,-0.012,-0.0049,-0.0026,0.0039,0.0244,0.0193,0.0253,0.0069,0.007,0.0072,0.0072,0.0073,-0.0335,-0.0328,-0.0319,-0.0311,-0.0312,-0.0272,-0.0214,-0.0189,-0.012,-0.0097,0.0164,0.0169,0.0251,-0.0019,-0.0019,-0.0018,-0.0018,-0.0018,-0.0018,-0.037,-0.0364,-0.0368,-0.0363,-0.0358,-0.0326,-0.0226,-0.0136,0.0022,0.0085,0.0088,0.0242,0.0053,0.009,-0.0014,-0.0015,-0.0015,-0.0016,-0.0016,-0.0392,-0.0395,-0.0398,-0.0396,-0.0369,-0.0256,-0.0156,0.0145,0.0237,0.0359,0.0399,0.0221,0.0319,0.0317,0.0362,0.0336,0.0336,0.0336,0.0336,-0.041,-0.0412,-0.0411,-0.0404,-0.0362,-0.023,0.0148,0.0429,0.0604,0.0654,0.0571,0.0584,0.0567,0.0679,0.0668,0.0721,0.0785,0.0786,0.0786,-0.042,-0.0417,-0.0415,-0.0407,-0.0362,-0.0128,0.0302,0.0698,0.0843,0.0801,0.0615,0.0596,0.0603,0.0573,0.074,0.072,0.0804,0,0]}],[{"header":{"parameterUnit":"m.s-1","parameterCategory":2,"la1":30.2992,"la2":30.254,"lo1":-89.0895,"lo2":-89.0443,"dy":0.0025,"dx":0.0025,"nx":19,"ny":19,"refTime":"2026-04-11T09:00:00:Z","depth":"2","parameterNumber":2,"parameterNumberName":"U-component_of_CURRENTS"},"data":[0,0,0,-0.1311,-0.1312,-0.1344,-0.1344,-0.1328,-0.1328,0,0,0,0,0,0,0,0,0,0,0,-0.1314,-0.1315,-0.1311,-0.1312,-0.1344,-0.1344,-0.1328,-0.1328,0,0,0,0,0,0,0,0,0,0,0,-0.1314,-0.1314,-0.1315,-0.1312,-0.1344,-0.1344,-0.1328,-0.1317,0,0,0,0,0,0,0,0,0,0,-0.1293,-0.1289,-0.1314,-0.1315,-0.1313,-0.1344,-0.1344,-0.1317,-0.1318,-0.1299,0,-0.1321,0,-0.1319,-0.1326,-0.1326,0,0,0,-0.1308,-0.1289,-0.1312,-0.1315,-0.1313,-0.1344,-0.1328,-0.1318,-0.1319,-0.13,-0.1321,-0.132,-0.1319,-0.1326,-0.1326,-0.1291,-0.1291,0,0,-0.1306,-0.1299,-0.1312,-0.1313,-0.1342,-0.1327,-0.1329,-0.1319,-0.1318,-0.1321,-0.132,-0.1319,-0.1326,-0.1325,-0.1291,-0.1291,0,0,0,-0.1304,-0.1298,-0.1322,-0.1314,-0.1322,-0.1328,-0.1331,-0.1319,-0.1332,-0.132,-0.1318,-0.1325,-0.1325,-0.1291,-0.1291,-0.1264,0,0,0,-0.1303,-0.1297,-0.1322,-0.1315,-0.1323,-0.1323,-0.133,-0.1333,-0.1332,-0.1318,-0.1325,-0.1325,-0.1291,-0.1291,-0.1265,-0.1251,0,0,0,-0.1309,-0.1296,-0.1311,-0.1315,-0.1331,-0.1324,-0.1336,-0.1333,-0.133,-0.1326,-0.1325,-0.1291,-0.1291,-0.1266,-0.1253,-0.1157,0,0,0,-0.1284,-0.1279,-0.1311,-0.1304,-0.1331,-0.134,-0.1336,-0.1342,-0.1341,-0.1325,-0.1291,-0.1291,-0.1266,-0.1254,-0.1159,-0.1002,-0.0977,0,0,-0.1255,-0.1276,-0.127,-0.1299,-0.1289,-0.1334,-0.1303,-0.1308,-0.1324,-0.129,-0.129,-0.1265,-0.1253,-0.1157,-0.0979,-0.0955,0,0,0,-0.1245,-0.1226,-0.1237,-0.1239,-0.1279,-0.1286,-0.1296,-0.1291,-0.1281,-0.1322,-0.1264,-0.1258,-0.1198,-0.1108,-0.109,-0.1289,-0.1289,-0.1289,-0.1289,-0.1128,-0.116,-0.1139,-0.1173,-0.1198,-0.1238,-0.1241,-0.1235,-0.1254,-0.1247,-0.1235,-0.1147,-0.1053,-0.1037,-0.1237,-0.1236,-0.1236,-0.1236,-0.1236,-0.1022,-0.0997,-0.1052,-0.1043,-0.1104,-0.1102,-0.1152,-0.1175,-0.1139,-0.1192,-0.1134,-0.1086,-0.1014,-0.1234,-0.1234,-0.1235,-0.1235,-0.1235,-0.1235,-0.0902,-0.0903,-0.0916,-0.0929,-0.0952,-0.1027,-0.101,-0.1075,-0.11,-0.1085,-0.0937,-0.0936,-0.1099,-0.1037,-0.1036,-0.1036,-0.1035,-0.1035,-0.1035,-0.0784,-0.0803,-0.0783,-0.0814,-0.0826,-0.0862,-0.0928,-0.0906,-0.0868,-0.0883,-0.0881,-0.1078,-0.1084,-0.1086,-0.1027,-0.1029,-0.1029,-0.103,-0.1031,-0.0635,-0.0677,-0.0635,-0.0637,-0.0664,-0.0622,-0.07,-0.0614,-0.0594,-0.0527,-0.0739,-0.0749,-0.0727,-0.0741,-0.0734,-0.0587,-0.0587,-0.0587,-0.0587,-0.0544,-0.056,-0.0516,-0.05,-0.049,-0.0512,-0.0344,-0.0305,-0.0359,-0.0414,-0.0422,-0.0456,-0.0476,-0.0444,-0.0466,-0.0455,-0.0235,-0.0235,-0.0235,-0.0459,-0.0467,-0.0407,-0.0422,-0.0416,-0.0362,-0.0162,0.0006,-0.0075,-0.023,-0.0452,-0.0546,-0.0619,-0.0641,-0.0617,-0.0642,-0.0634,0,0]},{"header":{"parameterUnit":"m.s-1","parameterCategory":2,"la1":30.2992,"la2":30.254,"lo1":-89.0895,"lo2":-89.0443,"dy":0.0025,"dx":0.0025,"nx":19,"ny":19,"refTime":"2026-04-11T09:00:00:Z","depth":"2","parameterNumber":3,"parameterNumberName":"V-component_of_CURRENTS"},"data":[0,0,0,-0.0175,-0.0172,-0.0056,-0.0056,0.0092,0.0093,0,0,0,0,0,0,0,0,0,0,0,-0.022,-0.022,-0.0175,-0.0172,-0.0056,-0.0056,0.0092,0.0093,0,0,0,0,0,0,0,0,0,0,0,-0.022,-0.022,-0.0219,-0.0172,-0.0056,-0.0056,0.0091,0.0005,0,0,0,0,0,0,0,0,0,0,-0.0107,-0.0161,-0.022,-0.0219,-0.0171,-0.0056,-0.0056,0.0001,0.001,0.0038,0,0.0051,0,0.0077,0.0103,0.0103,0,0,0,-0.0168,-0.0169,-0.0127,-0.0219,-0.017,-0.0057,-0.0107,0.0006,0.0017,0.005,0.0054,0.006,0.008,0.0103,0.0104,0.0167,0.0166,0,0,-0.0174,-0.0207,-0.0134,-0.012,-0.0144,-0.0111,-0.0104,0.0013,0.0015,0.0054,0.0063,0.0082,0.0104,0.0105,0.0167,0.0167,0,0,0,-0.0195,-0.0211,-0.0172,-0.0127,-0.0104,-0.0108,-0.0099,0.001,0.0026,0.0065,0.0084,0.0105,0.0107,0.0167,0.0167,0.0088,0,0,0,-0.0199,-0.0223,-0.0175,-0.0194,-0.0107,-0.0048,-0.0105,0.0018,0.0032,0.0083,0.0105,0.0108,0.0168,0.0167,0.0091,0.0074,0,0,0,-0.0225,-0.0226,-0.0212,-0.0196,-0.0145,-0.0049,-0.0026,0.0022,0.0044,0.0103,0.0109,0.0168,0.0167,0.0093,0.0078,0.0134,0,0,0,-0.0262,-0.0257,-0.0213,-0.02,-0.0147,-0.0096,-0.0027,0.002,0.0064,0.0106,0.0168,0.0167,0.0094,0.0081,0.0135,0.0234,0.0237,0,0,-0.0279,-0.026,-0.0251,-0.0209,-0.0176,-0.0111,-0.0085,0.0005,0.0059,0.0132,0.0134,0.009,0.0079,0.0134,0.0183,0.0187,0,0,0,-0.0272,-0.0266,-0.0248,-0.0216,-0.0166,-0.0128,-0.0047,-0.0016,0.0041,0.0083,0.0094,0.009,0.0128,0.019,0.0193,0.0163,0.0163,0.0163,0.0163,-0.0338,-0.0299,-0.0288,-0.0237,-0.0208,-0.0137,-0.0105,-0.0047,0.0005,0.0007,0.0027,0.0018,0.0079,0.0084,0.0022,0.0021,0.0021,0.0021,0.002,-0.0364,-0.0353,-0.0318,-0.0294,-0.025,-0.0227,-0.0155,-0.012,-0.0049,-0.0036,0.0005,0.0104,0.0083,0.0014,0.0015,0.0016,0.0017,0.0017,0.0018,-0.0401,-0.0391,-0.0375,-0.0349,-0.0334,-0.0282,-0.0222,-0.0177,-0.0108,-0.0086,0.0063,0.0066,0.0012,-0.0044,-0.0043,-0.0043,-0.0043,-0.0043,-0.0043,-0.0443,-0.0425,-0.0427,-0.0404,-0.0395,-0.0359,-0.0256,-0.0174,-0.0048,0.001,0.0012,-0.0001,0.0001,0.0012,-0.0041,-0.0041,-0.0042,-0.0042,-0.0042,-0.0469,-0.0472,-0.0469,-0.0464,-0.0432,-0.0356,-0.0264,-0.0039,0.0056,0.0142,0.0096,0.0092,0.0151,0.015,0.0165,0.0156,0.0156,0.0156,0.0156,-0.0497,-0.0496,-0.0496,-0.049,-0.0455,-0.0355,-0.0137,0.0004,0.0122,0.0114,0.0115,0.0106,0.0101,0.0156,0.0155,0.0171,0.0162,0.0162,0.0161,-0.0514,-0.051,-0.0515,-0.0503,-0.0467,-0.0313,-0.0093,0.0075,0.0136,0.0151,0.0001,0.0179,0.017,0.016,0.0251,0.0247,0.0274,0,0]}],[{"header":{"parameterUnit":"m.s-1","parameterCategory":2,"la1":30.2992,"la2":30.254,"lo1":-89.0895,"lo2":-89.0443,"dy":0.0025,"dx":0.0025,"nx":19,"ny":19,"refTime":"2026-04-11T09:00:00:Z","depth":"4","parameterNumber":2,"parameterNumberName":"U-component_of_CURRENTS"},"data":[0,0,0,-0.0539,-0.0541,-0.06,-0.06,-0.0597,-0.0597,0,0,0,0,0,0,0,0,0,0,0,-0.0509,-0.051,-0.0539,-0.0541,-0.06,-0.06,-0.0597,-0.0597,0,0,0,0,0,0,0,0,0,0,0,-0.0509,-0.051,-0.051,-0.0541,-0.06,-0.06,-0.0597,-0.057,0,0,0,0,0,0,0,0,0,0,-0.0521,-0.0514,-0.0509,-0.051,-0.0541,-0.06,-0.06,-0.0569,-0.0571,-0.0551,0,-0.0564,0,-0.0588,-0.0596,-0.0596,0,0,0,-0.053,-0.0513,-0.0526,-0.051,-0.0542,-0.06,-0.057,-0.0571,-0.0573,-0.0554,-0.0565,-0.0565,-0.0588,-0.0596,-0.0596,-0.0586,-0.0586,0,0,-0.0527,-0.052,-0.0525,-0.0528,-0.0561,-0.0568,-0.0572,-0.0573,-0.0577,-0.0565,-0.0566,-0.0588,-0.0596,-0.0596,-0.0586,-0.0586,0,0,0,-0.0525,-0.0518,-0.0533,-0.0527,-0.0548,-0.057,-0.0575,-0.0576,-0.0581,-0.0566,-0.0588,-0.0596,-0.0596,-0.0586,-0.0586,-0.0623,0,0,0,-0.0522,-0.0517,-0.0531,-0.0527,-0.0549,-0.0576,-0.0578,-0.0581,-0.0582,-0.0588,-0.0596,-0.0595,-0.0586,-0.0586,-0.0622,-0.0626,0,0,0,-0.0506,-0.0516,-0.0523,-0.0527,-0.0558,-0.0577,-0.0582,-0.0582,-0.0595,-0.0596,-0.0595,-0.0586,-0.0586,-0.0621,-0.0624,-0.0598,0,0,0,-0.0494,-0.0521,-0.0523,-0.0566,-0.0558,-0.0594,-0.0583,-0.0615,-0.0621,-0.0596,-0.0586,-0.0586,-0.0621,-0.0623,-0.0598,-0.0496,0,0,0,-0.0523,-0.0525,-0.0552,-0.0556,-0.0605,-0.0585,-0.0615,-0.0624,-0.0608,-0.0578,-0.0578,-0.0622,-0.0624,-0.0598,-0.0498,0,0,0,0,-0.0559,-0.0581,-0.0594,-0.0629,-0.064,-0.0636,-0.0643,-0.0632,-0.0626,-0.0614,-0.0612,-0.0611,-0.0594,-0.0534,-0.0586,-0.0586,-0.0586,-0.0586,-0.0586,-0.0591,-0.0614,-0.0646,-0.0665,-0.0678,-0.0679,-0.067,-0.0649,-0.064,-0.064,-0.0635,-0.063,-0.0569,-0.0633,-0.0633,-0.0633,-0.0633,-0.0633,-0.0633,-0.0622,-0.062,-0.0662,-0.0697,-0.0693,-0.0705,-0.0683,-0.068,-0.0651,-0.0649,-0.0631,-0.057,-0.0637,-0.0636,-0.0635,-0.0635,-0.0635,-0.0635,-0.0634,-0.0593,-0.0586,-0.0633,-0.0669,-0.0696,-0.0701,-0.0681,-0.0688,-0.0669,-0.0667,-0.057,-0.0635,-0.0637,-0.0653,-0.0653,-0.0653,-0.0653,-0.0653,-0.0653,-0.0509,-0.0553,-0.0572,-0.0628,-0.0648,-0.0662,-0.0673,-0.0644,-0.0642,-0.0583,-0.0666,-0.0635,-0.0635,-0.0637,-0.0651,-0.0652,-0.0652,-0.0652,-0.0652,-0.0432,-0.0458,-0.0479,-0.0507,-0.0557,-0.0565,-0.0605,-0.0548,-0.0505,-0.0458,-0.0523,-0.0529,-0.0495,-0.0497,-0.0494,-0.0466,-0.0465,-0.0464,0,-0.036,-0.0381,-0.0396,-0.0421,-0.0427,-0.0496,-0.042,-0.041,-0.0412,-0.0405,-0.0491,-0.0567,-0.057,-0.0534,-0.0534,-0.053,0,0,0,-0.0306,-0.0322,-0.0308,-0.0358,-0.0372,-0.0365,-0.0393,-0.0357,-0.044,-0.0361,-0.0431,-0.044,-0.055,-0.0647,-0.061,-0.0609,-0.061,0,0]},{"header":{"parameterUnit":"m.s-1","parameterCategory":2,"la1":30.2992,"la2":30.254,"lo1":-89.0895,"lo2":-89.0443,"dy":0.0025,"dx":0.0025,"nx":19,"ny":19,"refTime":"2026-04-11T09:00:00:Z","depth":"4","parameterNumber":3,"parameterNumberName":"V-component_of_CURRENTS"},"data":[0,0,0,-0.0251,-0.025,-0.0212,-0.0212,-0.0143,-0.0142,0,0,0,0,0,0,0,0,0,0,0,-0.0272,-0.0272,-0.0251,-0.025,-0.0212,-0.0212,-0.0143,-0.0142,0,0,0,0,0,0,0,0,0,0,0,-0.0272,-0.0272,-0.0271,-0.025,-0.0212,-0.0212,-0.0143,-0.0178,0,0,0,0,0,0,0,0,0,0,-0.0218,-0.0238,-0.0272,-0.0271,-0.025,-0.0212,-0.0212,-0.018,-0.0176,-0.0154,0,-0.015,0,-0.0138,-0.0137,-0.0137,0,0,0,-0.0254,-0.0241,-0.0229,-0.0271,-0.0249,-0.0212,-0.023,-0.0178,-0.0173,-0.0148,-0.0149,-0.0146,-0.0137,-0.0136,-0.0136,0.0021,0.0022,0,0,-0.0256,-0.0264,-0.0233,-0.0227,-0.0241,-0.0231,-0.0229,-0.0175,-0.0171,-0.0148,-0.0144,-0.0136,-0.0136,-0.0135,0.002,0.0022,0,0,0,-0.026,-0.0265,-0.0256,-0.0229,-0.022,-0.023,-0.0227,-0.0174,-0.017,-0.0144,-0.0135,-0.0135,-0.0134,0.0019,0.0021,0.0036,0,0,0,-0.0261,-0.0267,-0.0257,-0.0261,-0.0222,-0.0198,-0.0227,-0.0175,-0.0168,-0.0136,-0.0135,-0.0134,0.0018,0.002,0.0033,0.0007,0,0,0,-0.0273,-0.0268,-0.0264,-0.0261,-0.0242,-0.0199,-0.0193,-0.0173,-0.0162,-0.0136,-0.0133,0.0017,0.002,0.003,0.0004,-0.0013,0,0,0,-0.0281,-0.0271,-0.0265,-0.024,-0.0242,-0.0188,-0.0193,-0.016,-0.0138,-0.0135,0.0018,0.0021,0.0029,0.0002,-0.0014,-0.0107,0,0,0,-0.0272,-0.027,-0.0253,-0.0245,-0.0198,-0.0194,-0.0117,-0.0101,-0.0083,-0.0002,0.0001,0.0034,0.0004,-0.0013,0.0053,0,0,0,0,-0.0251,-0.0247,-0.0227,-0.02,-0.0157,-0.0105,-0.0079,-0.0039,0.003,-0.0055,0.0084,0.0065,0.0053,-0.0,0.0034,0.0033,0.0033,0.0033,0.0032,-0.0273,-0.024,-0.0211,-0.0165,-0.0119,-0.004,0.0014,0.0079,0.0082,0.0135,0.0116,0.0163,0.0116,0.0178,0.0178,0.0178,0.0178,0.0178,0.0178,-0.0276,-0.0261,-0.0211,-0.0179,-0.0101,-0.0039,0.0101,0.013,0.02,0.0207,0.0194,0.007,0.0181,0.018,0.018,0.018,0.0179,0.0179,0.0179,-0.0303,-0.0289,-0.0275,-0.0225,-0.0156,-0.0054,0.0019,0.011,0.0187,0.0198,0.0102,0.0162,0.0112,0.017,0.0169,0.0169,0.0169,0.0169,0.0169,-0.0341,-0.0318,-0.0322,-0.0271,-0.0249,-0.0182,-0.0049,0.0005,0.0086,0.0095,0.0167,0.0159,0.0159,0.0113,0.0167,0.0167,0.0168,0.0168,0.0168,-0.0362,-0.0371,-0.037,-0.0366,-0.0315,-0.027,-0.0166,-0.0076,-0.0044,-0.0017,0.0049,0.0056,0.0025,0.0028,-0.0026,-0.0011,-0.0012,-0.0013,0,-0.0391,-0.0391,-0.04,-0.0396,-0.0372,-0.0302,-0.0264,-0.0189,-0.0094,-0.0109,-0.0031,0.0041,0.0046,0.0009,0.001,-0.0053,0,0,0,-0.0409,-0.0408,-0.0418,-0.0411,-0.0386,-0.0311,-0.0245,-0.0224,-0.0124,-0.0097,-0.004,-0.0033,0.0081,0.016,0.0127,0.0127,0.005,0,0]}]]